• In Kazakhstan
  • List of Countries
  • For 7 days
  • Water Temperature
  • Weather Map
  • News
  • Weather Widgets
  • user-avatar
    Login

    Hourly Weather Brecon

    Today, 1 June, Monday

    Time Temperature Precipitation Wind Pressure Humidity
    00:00 +11°C° 0 mm 4 mps 751 mmHg 79%
    01:00 +10°C° 0 mm 4 mps 751 mmHg 81%
    02:00 +8°C° 0 mm 4 mps 751 mmHg 82%
    03:00 +7°C° 0 mm 4 mps 751 mmHg 84%
    04:00 +8°C° 0 mm 4 mps 751 mmHg 82%
    05:00 +10°C° 0 mm 4 mps 751 mmHg 81%
    06:00 +10°C° 0 mm 4 mps 751 mmHg 79%
    07:00 +12°C° 0 mm 4 mps 751 mmHg 76%
    08:00 +14°C° 0 mm 4 mps 751 mmHg 72%
    09:00 +16°C° 0 mm 5 mps 751 mmHg 69%
    10:00 +17°C° 0 mm 5 mps 751 mmHg 67%
    11:00 +19°C° 0 mm 4 mps 751 mmHg 64%
    12:00 +20°C° 0 mm 4 mps 751 mmHg 62%
    13:00 +20°C° 0 mm 4 mps 751 mmHg 61%
    14:00 +21°C° 0 mm 4 mps 751 mmHg 60%
    15:00 +21°C° 0 mm 3 mps 751 mmHg 59%
    16:00 +21°C° 0 mm 3 mps 751 mmHg 62%
    17:00 +20°C° 0 mm 3 mps 751 mmHg 66%
    18:00 +20°C° 0 mm 3 mps 751 mmHg 70%
    19:00 +18°C° 0 mm 3 mps 751 mmHg 77%
    20:00 +16°C° 0 mm 3 mps 751 mmHg 83%
    21:00 +14°C° 0 mm 3 mps 751 mmHg 90%
    22:00 +13°C° 0 mm 3 mps 751 mmHg 91%
    23:00 +13°C° 0 mm 3 mps 751 mmHg 92%

    Tomorrow, 2 June, Tuesday

    Time Temperature Precipitation Wind Pressure Humidity
    00:00 +12°C° 0 mm 3 mps 751 mmHg 93%
    01:00 +12°C° 0 mm 3 mps 751 mmHg 93%
    02:00 +11°C° 0 mm 3 mps 751 mmHg 94%
    03:00 +11°C° 0 mm 3 mps 751 mmHg 94%
    04:00 +11°C° 0 mm 3 mps 751 mmHg 92%
    05:00 +13°C° 0 mm 2 mps 751 mmHg 90%
    06:00 +13°C° 0 mm 2 mps 751 mmHg 88%
    07:00 +15°C° 0 mm 2 mps 751 mmHg 81%
    08:00 +17°C° 0 mm 2 mps 750 mmHg 74%
    09:00 +18°C° 0 mm 2 mps 750 mmHg 66%
    10:00 +19°C° 0 mm 2 mps 750 mmHg 64%
    11:00 +20°C° 0 mm 2 mps 750 mmHg 61%
    12:00 +20°C° 0 mm 2 mps 750 mmHg 58%
    13:00 +20°C° 0 mm 2 mps 749 mmHg 60%
    14:00 +20°C° 0 mm 2 mps 749 mmHg 61%
    15:00 +20°C° 0 mm 2 mps 748 mmHg 63%
    16:00 +20°C° 0.1 mm 2 mps 748 mmHg 66%
    17:00 +20°C° 0.1 mm 2 mps 747 mmHg 70%
    18:00 +19°C° 0.1 mm 2 mps 747 mmHg 74%
    19:00 +18°C° 0.1 mm 2 mps 747 mmHg 78%
    20:00 +16°C° 0.1 mm 2 mps 746 mmHg 82%
    21:00 +14°C° 0.1 mm 1 mps 746 mmHg 86%
    22:00 +14°C° 0 mm 2 mps 746 mmHg 86%
    23:00 +14°C° 0 mm 2 mps 745 mmHg 87%

    Day after tomorrow, 3 June, Wednesday

    Time Temperature Precipitation Wind Pressure Humidity
    00:00 +13°C° 0 mm 2 mps 745 mmHg 87%
    01:00 +13°C° 0.1 mm 2 mps 744 mmHg 86%
    02:00 +13°C° 0.1 mm 1 mps 744 mmHg 86%
    03:00 +13°C° 0.1 mm 1 mps 743 mmHg 86%
    04:00 +13°C° 0.6 mm 1 mps 743 mmHg 89%
    05:00 +13°C° 0.6 mm 1 mps 742 mmHg 91%
    06:00 +13°C° 0.6 mm 2 mps 742 mmHg 93%
    07:00 +13°C° 0.9 mm 2 mps 742 mmHg 93%
    08:00 +13°C° 0.9 mm 2 mps 742 mmHg 93%
    09:00 +14°C° 0.9 mm 2 mps 742 mmHg 92%
    10:00 +14°C° 1 mm 2 mps 741 mmHg 91%
    11:00 +14°C° 1 mm 2 mps 741 mmHg 90%
    12:00 +14°C° 1 mm 2 mps 741 mmHg 89%
    13:00 +13°C° 0.5 mm 3 mps 741 mmHg 90%
    14:00 +12°C° 0.5 mm 4 mps 741 mmHg 90%
    15:00 +12°C° 0.5 mm 5 mps 741 mmHg 91%
    16:00 +11°C° 0.1 mm 6 mps 741 mmHg 88%
    17:00 +11°C° 0.1 mm 6 mps 741 mmHg 86%
    18:00 +11°C° 0.1 mm 7 mps 741 mmHg 83%
    19:00 +11°C° 0 mm 7 mps 741 mmHg 83%
    20:00 +10°C° 0 mm 6 mps 742 mmHg 83%
    21:00 +9°C° 0 mm 6 mps 742 mmHg 83%
    22:00 +9°C° 0 mm 5 mps 742 mmHg 86%
    23:00 +8°C° 0 mm 5 mps 742 mmHg 88%

    4 June, Thursday

    Time Temperature Precipitation Wind Pressure Humidity
    00:00 +7°C° 0 mm 4 mps 741 mmHg 91%
    01:00 +7°C° 0 mm 4 mps 741 mmHg 91%
    02:00 +7°C° 0 mm 4 mps 741 mmHg 91%
    03:00 +8°C° 0 mm 3 mps 741 mmHg 91%
    04:00 +8°C° 0 mm 3 mps 741 mmHg 89%
    05:00 +8°C° 0 mm 3 mps 741 mmHg 88%
    06:00 +9°C° 0 mm 3 mps 740 mmHg 86%
    07:00 +10°C° 0 mm 3 mps 740 mmHg 80%
    08:00 +11°C° 0 mm 3 mps 741 mmHg 75%
    09:00 +12°C° 0 mm 3 mps 741 mmHg 70%
    10:00 +13°C° 0.1 mm 4 mps 740 mmHg 68%
    11:00 +13°C° 0.1 mm 5 mps 740 mmHg 67%
    12:00 +14°C° 0.1 mm 6 mps 740 mmHg 66%
    13:00 +14°C° 0 mm 6 mps 740 mmHg 67%
    14:00 +14°C° 0 mm 6 mps 739 mmHg 68%
    15:00 +14°C° 0 mm 7 mps 739 mmHg 68%
    16:00 +12°C° 0.1 mm 7 mps 739 mmHg 71%
    17:00 +13°C° 0.1 mm 6 mps 739 mmHg 73%
    18:00 +11°C° 0.1 mm 6 mps 739 mmHg 76%
    19:00 +10°C° 0 mm 5 mps 739 mmHg 80%
    20:00 +9°C° 0 mm 5 mps 739 mmHg 85%
    21:00 +7°C° 0 mm 4 mps 739 mmHg 89%
    22:00 +7°C° 0 mm 4 mps 739 mmHg 90%
    23:00 +8°C° 0 mm 3 mps 738 mmHg 90%

    5 June, Friday

    Time Temperature Precipitation Wind Pressure Humidity
    00:00 +8°C° 0 mm 3 mps 738 mmHg 91%
    01:00 +8°C° 0 mm 3 mps 738 mmHg 92%
    02:00 +8°C° 0 mm 3 mps 738 mmHg 93%
    03:00 +8°C° 0 mm 3 mps 738 mmHg 94%
    04:00 +8°C° 0 mm 4 mps 737 mmHg 92%
    05:00 +9°C° 0 mm 5 mps 737 mmHg 90%
    06:00 +9°C° 0 mm 5 mps 737 mmHg 89%
    07:00 +10°C° 0 mm 6 mps 737 mmHg 88%
    08:00 +11°C° 0 mm 7 mps 737 mmHg 87%
    09:00 +11°C° 0 mm 8 mps 737 mmHg 85%
    10:00 +12°C° 0.1 mm 8 mps 736 mmHg 83%
    11:00 +13°C° 0.1 mm 9 mps 736 mmHg 80%
    12:00 +13°C° 0.1 mm 9 mps 736 mmHg 78%
    13:00 +13°C° 0.1 mm 9 mps 736 mmHg 75%
    14:00 +13°C° 0.1 mm 9 mps 736 mmHg 72%
    15:00 +15°C° 0.1 mm 9 mps 736 mmHg 70%
    16:00 +13°C° 0 mm 8 mps 736 mmHg 70%
    17:00 +13°C° 0 mm 8 mps 736 mmHg 70%
    18:00 +12°C° 0 mm 7 mps 736 mmHg 70%
    19:00 +11°C° 0 mm 7 mps 737 mmHg 73%
    20:00 +9°C° 0 mm 6 mps 737 mmHg 77%
    21:00 +8°C° 0 mm 6 mps 737 mmHg 81%
    22:00 +8°C° 0 mm 6 mps 738 mmHg 82%
    23:00 +7°C° 0 mm 6 mps 738 mmHg 83%

    6 June, Saturday

    Time Temperature Precipitation Wind Pressure Humidity
    00:00 +7°C° 0 mm 5 mps 738 mmHg 85%
    01:00 +6°C° 0 mm 5 mps 739 mmHg 85%
    02:00 +6°C° 0 mm 5 mps 739 mmHg 85%
    03:00 +6°C° 0 mm 5 mps 739 mmHg 85%
    04:00 +6°C° 0 mm 5 mps 740 mmHg 84%
    05:00 +7°C° 0 mm 5 mps 740 mmHg 82%
    06:00 +7°C° 0 mm 5 mps 740 mmHg 81%
    07:00 +8°C° 0 mm 6 mps 741 mmHg 76%
    08:00 +10°C° 0 mm 6 mps 741 mmHg 72%
    09:00 +11°C° 0 mm 6 mps 741 mmHg 68%
    10:00 +11°C° 0.1 mm 7 mps 742 mmHg 64%
    11:00 +12°C° 0.1 mm 7 mps 742 mmHg 61%
    12:00 +12°C° 0.1 mm 7 mps 742 mmHg 57%
    13:00 +12°C° 0 mm 7 mps 742 mmHg 56%
    14:00 +12°C° 0 mm 7 mps 742 mmHg 55%
    15:00 +11°C° 0 mm 7 mps 742 mmHg 54%
    16:00 +11°C° 0 mm 7 mps 742 mmHg 57%
    17:00 +10°C° 0 mm 7 mps 742 mmHg 60%
    18:00 +10°C° 0 mm 7 mps 742 mmHg 63%
    19:00 +8°C° 0 mm 6 mps 743 mmHg 70%
    20:00 +6°C° 0 mm 5 mps 743 mmHg 76%
    21:00 +5°C° 0 mm 4 mps 743 mmHg 83%
    22:00 +4°C° 0 mm 3 mps 744 mmHg 84%
    23:00 +3°C° 0 mm 3 mps 744 mmHg 85%
    Show more